Weather History for Cody, WY

Change the Weather History Date:

Friday, November 25, 2011

  Actual Average Record
Temperature  
Mean Temperature 34 °F -  
Max Temperature 42 °F 40 °F 65 °F (1933)
Min Temperature 26 °F 18 °F -10 °F (1993)
Degree Days  
Heating Degree Days 31    
Moisture  
Dew Point 15 °F    
Average Humidity 53    
Maximum Humidity 74    
Minimum Humidity 34    
Precipitation  
Precipitation 0.00 in - - ()
Sea Level Pressure  
Sea Level Pressure 29.86 in    
Wind  
Wind Speed 10 mph (West)    
Max Wind Speed 18 mph    
Max Gust Speed 29 mph    
Visibility 9 miles    
Events      
Averages and records for this station are not official NWS values.
T = Trace of Precipitation, MM = Missing Value Source: NWS Daily Summary

Daily Weather History Graph

Daily Weather History Graph

Search for Another Location

Airport:

Trip Planner

Search our weather history database for the weather conditions in past years. The results will help you decide how hot, cold, wet, or windy it might be!

Date:

Astronomy

Nov. 25, 2011 Rise Set
Actual Time 7:25 AM MST 4:40 PM MST
Civil Twilight 6:52 AM MST 5:12 PM MST
Nautical Twilight 6:16 AM MST 5:48 PM MST
Astronomical Twilight 5:42 AM MST 6:23 PM MST
Moon 7:59 AM MST (11/25) 5:08 PM MST (11/25)
Length of Visible Light 10h 20m
Length of Day
9h 15m
New Moon, 0% of the Moon is Illuminated
Nov 25
New Moon
Dec 2
First Quarter
Dec 10
Full
Dec 17
Last Quarter
Dec 24
New

Hourly Weather History & Observations

Time (MST) Temp. Windchill Dew Point Humidity Pressure Visibility Wind Dir Wind Speed Gust Speed Precip Events Conditions
12:15 AM - - - N/A% 29.72 in 10.0 mi ESE 11.5 mph 16.1 mph N/A   Clear
12:35 AM - - - N/A% 29.72 in 10.0 mi East 6.9 mph 19.6 mph N/A   Clear
12:55 AM - - - N/A% 29.72 in 10.0 mi East 12.7 mph 19.6 mph N/A   Clear
1:15 AM - - - N/A% 29.71 in 10.0 mi East 15.0 mph 19.6 mph N/A   Clear
1:35 AM - - - N/A% 29.71 in 10.0 mi East 13.8 mph 18.4 mph N/A   Clear
1:55 AM - - - N/A% 29.71 in 10.0 mi East 13.8 mph 20.7 mph N/A   Clear
2:15 AM - - - N/A% 29.72 in 10.0 mi ESE 13.8 mph - N/A   Clear
2:35 AM - - - N/A% 29.73 in 10.0 mi East 8.1 mph 23.0 mph N/A   Clear
3:15 AM - - - N/A% 29.73 in 10.0 mi East 5.8 mph - N/A   Clear
3:35 AM 42.8 °F 37.5 °F 19.4 °F 39% 29.74 in 10.0 mi West 9.2 mph - N/A   Clear
3:55 AM 42.8 °F 37.0 °F 19.4 °F 39% 29.75 in 10.0 mi West 10.4 mph 21.9 mph N/A   Clear
4:15 AM 42.8 °F 38.6 °F 19.4 °F 39% 29.74 in 10.0 mi West 6.9 mph 17.3 mph N/A   Scattered Clouds
4:35 AM - - - N/A% 29.75 in 10.0 mi WSW 10.4 mph 17.3 mph N/A   Mostly Cloudy
4:55 AM - - - N/A% 29.75 in 10.0 mi WSW 9.2 mph 16.1 mph N/A   Scattered Clouds
5:15 AM - - - N/A% 29.75 in 10.0 mi SW 5.8 mph - N/A   Clear
5:35 AM - - - N/A% 29.74 in 10.0 mi SW 6.9 mph - N/A   Clear
5:55 AM - - - N/A% 29.74 in 10.0 mi Calm Calm - N/A   Clear
6:15 AM - - - N/A% 29.73 in 10.0 mi North 3.5 mph - N/A   Clear
6:55 AM - - - N/A% 29.73 in 10.0 mi ESE 4.6 mph - N/A   Clear
7:15 AM 39.2 °F 34.2 °F 21.2 °F 49% 29.73 in 10.0 mi SW 6.9 mph - N/A   Clear
7:35 AM 41.0 °F 34.3 °F 21.2 °F 45% 29.72 in 10.0 mi SSW 11.5 mph 16.1 mph N/A   Mostly Cloudy
7:55 AM 41.0 °F 35.2 °F 21.2 °F 45% 29.74 in 10.0 mi SW 9.2 mph - N/A   Mostly Cloudy
8:15 AM - - - N/A% 29.74 in 10.0 mi WSW 9.2 mph - N/A   Mostly Cloudy
8:35 AM - - - N/A% 29.74 in 10.0 mi WSW 6.9 mph - N/A   Mostly Cloudy
8:55 AM - - - N/A% 29.74 in 10.0 mi SSW 3.5 mph - N/A   Scattered Clouds
9:15 AM - - - N/A% 29.72 in 10.0 mi WSW 4.6 mph - N/A   Partly Cloudy
9:55 AM - - - N/A% 29.74 in 10.0 mi SW 13.8 mph 24.2 mph N/A   Mostly Cloudy
10:35 AM - - - N/A% 29.75 in 10.0 mi West 9.2 mph - N/A   Mostly Cloudy
10:55 AM - - - N/A% 29.74 in 10.0 mi NW 4.6 mph - N/A   Mostly Cloudy
11:35 AM 42.8 °F - 24.8 °F 49% 29.75 in 10.0 mi Calm Calm - N/A   Mostly Cloudy
11:55 AM - - - N/A% 29.77 in 10.0 mi WNW 12.7 mph 19.6 mph N/A   Overcast
12:35 PM 33.8 °F 27.0 °F 24.8 °F 70% 29.77 in 0.5 mi West 8.1 mph - N/A   Overcast
12:55 PM 33.8 °F 23.5 °F 24.8 °F 70% 29.79 in 2.0 mi SSW 16.1 mph 20.7 mph N/A   Overcast
1:15 PM 33.8 °F 23.5 °F 24.8 °F 70% 29.78 in 9.0 mi NW 16.1 mph - N/A   Overcast
1:35 PM 33.8 °F 22.8 °F 23.0 °F 65% 29.78 in 10.0 mi North 18.4 mph - N/A   Overcast
2:15 PM 30.2 °F 19.3 °F 21.2 °F 69% 29.84 in 10.0 mi NW 15.0 mph 19.6 mph N/A   Overcast
2:35 PM 30.2 °F 21.9 °F 19.4 °F 64% 29.86 in 1.0 mi WNW 9.2 mph - N/A   Overcast
2:55 PM 28.4 °F 23.3 °F 21.2 °F 74% 29.86 in 0.5 mi NNE 4.6 mph - N/A   Overcast
3:15 PM 28.4 °F 24.6 °F 21.2 °F 74% 29.87 in 10.0 mi NNE 3.5 mph - N/A   Overcast
3:35 PM 28.4 °F 19.7 °F 21.2 °F 74% 29.90 in 10.0 mi North 9.2 mph - N/A   Mostly Cloudy
3:55 PM 28.4 °F 20.4 °F 21.2 °F 74% 29.92 in 10.0 mi North 8.1 mph - N/A   Overcast
4:15 PM 28.4 °F 21.2 °F 19.4 °F 69% 29.93 in 10.0 mi WSW 6.9 mph 16.1 mph N/A   Overcast
4:35 PM 28.4 °F 23.3 °F 17.6 °F 64% 29.95 in 10.0 mi NNW 4.6 mph - N/A   Overcast
4:55 PM 26.6 °F 20.0 °F 15.8 °F 64% 29.97 in 10.0 mi NNW 5.8 mph - N/A   Mostly Cloudy
5:15 PM 28.4 °F 19.1 °F 12.2 °F 51% 29.99 in 10.0 mi West 10.4 mph - N/A   Partly Cloudy
5:35 PM 28.4 °F 20.4 °F 12.2 °F 51% 30.01 in 10.0 mi West 8.1 mph - N/A   Clear
5:56 PM 30.2 °F 18.9 °F 8.6 °F 40% 30.03 in 10.0 mi WSW 16.1 mph 23.0 mph N/A   Clear
6:35 PM 28.4 °F 18.5 °F 8.6 °F 43% 30.08 in 10.0 mi West 11.5 mph 21.9 mph N/A   Clear
7:15 PM 26.6 °F 16.8 °F 8.6 °F 47% 30.12 in 10.0 mi West 10.4 mph 19.6 mph N/A   Clear
8:15 PM 26.6 °F 15.7 °F 6.8 °F 43% 30.17 in 10.0 mi West 12.7 mph 19.6 mph N/A   Clear
8:35 PM 26.6 °F 15.2 °F 5.0 °F 40% 30.19 in 10.0 mi West 13.8 mph 19.6 mph N/A   Clear
8:55 PM 28.4 °F 18.0 °F 3.2 °F 34% 30.19 in 10.0 mi West 12.7 mph 19.6 mph N/A   Clear
9:15 PM 26.6 °F 15.2 °F 3.2 °F 37% 30.20 in 10.0 mi WSW 13.8 mph 28.8 mph N/A   Clear
9:35 PM 26.6 °F 14.7 °F 5.0 °F 40% 30.22 in 10.0 mi West 15.0 mph 24.2 mph N/A   Clear
9:55 PM 26.6 °F 16.2 °F 3.2 °F 37% 30.24 in 10.0 mi West 11.5 mph 20.7 mph N/A   Clear
11:35 PM 26.6 °F 18.2 °F 1.4 °F 34% 30.31 in 10.0 mi WSW 8.1 mph 19.6 mph N/A   Clear
11:55 PM 26.6 °F 18.2 °F 1.4 °F 34% 30.33 in 10.0 mi SW 8.1 mph - N/A   Clear